Theta_e
310 310 310 310 310 310 310 310 309 309 309 308 307 307 307 310 311 312 313 314 315 314 314 313 315 316 314 315 314 309 310 312 313 315 317 314 314 312 311 312 311 310 311 309 310
310 310 310 310 310 310 310 309 309 309 309 308 308 307 307 310 311 313 311 314 314 314 315 315 313 313 312 315 314 313 308 309 310 314 315 314 313 313 313 312 311 311 309 308 308
311 311 311 311 311 310 310 310 310 310 309 308 307 307 306 309 313 310 316 313 315 315 314 314 314 313 314 314 315 313 313 312 314 313 314 314 312 311 311 311 309 310 309 305 304
312 310 309 310 310 310 310 311 311 310 310 310 308 307 306 311 308 314 315 315 315 313 314 314 312 314 314 315 314 316 313 312 314 315 314 313 312 312 309 314 311 308 309 304 303
314 313 312 312 310 308 307 308 310 311 311 310 309 308 307 312 310 311 314 315 314 312 313 310 312 313 314 312 314 315 315 314 312 313 312 311 311 311 310 310 307 307 306 305 304
315 314 314 314 314 312 310 308 306 306 309 310 310 307 311 307 310 311 314 313 312 312 312 311 311 311 313 314 314 313 313 312 311 312 312 314 313 311 312 310 308 307 306 304 304
315 315 315 315 315 315 313 310 309 307 305 305 308 307 313 307 311 312 313 311 311 312 310 311 312 313 312 312 312 312 312 310 309 311 311 310 312 310 312 310 309 307 307 305 304
315 315 316 316 316 317 313 310 309 309 308 305 305 311 306 310 311 311 311 310 310 311 311 312 312 312 313 310 309 311 310 311 310 309 310 310 311 311 309 309 309 308 305 304 305
316 316 317 317 317 317 311 310 310 309 308 306 310 313 309 311 311 311 311 310 310 310 310 312 311 310 311 309 308 307 309 308 309 308 311 310 311 311 310 308 308 307 306 306 304
317 317 317 318 318 316 315 310 310 311 313 314 316 309 306 310 312 311 310 310 309 308 308 310 306 308 307 307 310 308 308 308 309 310 310 311 310 310 311 308 307 307 307 307 307
319 319 319 319 319 317 313 311 306 306 314 308 310 307 309 311 312 309 309 310 309 308 307 308 307 308 309 308 309 308 307 308 308 309 311 310 311 311 311 311 307 307 309 309 309
320 320 320 320 319 317 311 309 309 309 306 306 306 307 310 312 312 309 309 309 309 309 306 309 308 309 308 307 308 309 310 309 310 309 307 308 309 309 308 310 311 311 309 309 309
323 322 321 320 320 317 311 309 308 310 307 305 305 305 306 310 310 310 308 307 309 308 308 310 310 309 307 308 309 308 309 310 310 308 306 307 310 309 307 308 309 309 309 309 309
325 325 323 322 319 317 312 312 308 310 307 306 307 306 308 308 307 306 307 308 308 309 308 308 308 309 308 308 308 310 308 309 310 310 312 309 312 309 309 309 307 309 309 308 308
323 324 323 322 319 317 315 312 308 305 328 313 307 308 309 305 306 306 306 308 308 308 308 307 309 309 309 310 308 310 309 308 308 307 309 309 309 311 308 307 308 308 309 308 308
322 323 322 320 319 321 317 310 309 316 327 313 307 308 309 309 308 305 306 306 306 308 306 307 306 307 308 307 306 308 310 309 306 307 311 310 310 311 308 308 309 308 307 307 308
318 320 320 319 317 317 315 310 324 327 316 317 309 308 308 308 308 306 307 308 307 308 306 305 306 306 307 309 308 309 309 310 310 310 313 307 309 312 310 307 308 309 307 305 303
312 315 319 319 319 317 314 320 328 323 319 314 310 308 310 308 309 307 306 306 305 305 305 307 312 306 306 308 308 308 308 311 309 311 313 307 311 314 308 307 306 304 304 303 302
308 310 316 317 318 316 317 324 325 323 319 320 320 320 313 309 309 308 305 305 305 304 308 306 308 306 305 307 307 306 308 308 310 298 305 311 310 312 307 307 308 307 305 303 301
305 312 313 314 318 313 319 321 322 319 319 320 324 321 321 311 313 312 312 308 308 304 305 308 311 307 305 306 306 306 306 310 308 313 309 311 310 312 311 312 311 307 305 302 301
305 309 311 314 315 314 319 317 317 317 318 320 322 322 321 323 322 322 321 315 308 308 306 311 313 315 311 309 310 306 307 307 308 312 316 317 315 314 312 307 306 303 302 302 303
306 309 311 314 315 315 316 315 314 315 314 318 317 320 320 319 321 320 321 319 314 313 311 310 315 319 316 310 305 307 308 308 312 313 311 314 315 313 313 311 310 311 309 304 302
306 306 311 312 315 316 315 315 315 315 315 316 317 316 315 317 318 316 315 314 314 314 315 312 314 319 317 313 310 313 313 312 312 312 314 314 314 311 311 311 311 310 306 305 304
300 303 308 310 311 313 313 314 315 313 314 314 315 314 314 315 315 316 315 313 310 312 313 314 316 318 318 315 315 313 312 312 314 317 316 315 314 313 312 311 311 311 310 309 304
298 300 302 309 308 310 310 310 311 311 311 312 313 314 314 315 313 314 311 308 306 308 308 310 315 315 313 313 312 312 313 315 316 315 316 316 315 314 313 311 306 301 301 300 300
297 298 298 299 300 303 306 308 308 309 310 310 311 310 307 310 310 307 299 303 303 303 302 303 305 306 307 307 306 310 312 313 312 311 313 314 314 301 297 294 293 293 293 293 293
293 295 297 297 297 298 301 303 301 300 304 302 298 299 300 300 296 295 295 296 297 297 297 300 302 302 304 302 301 301 302 303 305 305 304 307 297 295 293 292 291 292 291 291 292
Wind_Speed
10 10 11 12 12 11 11 10 10 11 11 11 11 12 11 9 9 9 8 9 5 11 8 8 6 4 2 1 2 4 3 3 5 5 4 1 3 2 1 2 3 6 4 1 7
10 11 11 12 12 13 12 12 12 12 12 12 13 13 13 11 10 13 16 11 10 14 12 12 5 6 1 2 1 4 3 7 6 4 4 2 4 4 2 4 5 6 3 2 20
11 12 13 13 12 12 13 13 13 13 13 13 14 14 14 11 4 6 2 15 11 15 9 9 7 5 2 2 4 5 6 5 7 7 4 4 3 4 4 8 8 10 9 8 16
11 12 12 13 14 14 14 13 13 13 13 13 14 14 13 4 5 2 1 10 15 15 9 8 4 4 4 5 5 3 9 6 5 4 3 4 3 5 8 21 6 14 2 7 11
13 14 14 15 15 14 14 16 15 14 14 13 13 13 5 2 10 9 5 10 16 16 14 6 5 5 5 4 2 5 5 6 7 6 7 5 11 7 12 19 9 9 7 10 12
13 14 15 16 17 16 17 17 17 17 17 15 12 10 1 4 6 8 8 11 11 15 8 7 6 7 4 4 5 2 5 8 5 6 6 5 10 5 17 6 10 8 12 11 12
12 13 15 16 19 21 21 21 20 18 18 17 13 5 3 15 8 7 10 9 14 10 3 5 3 3 1 4 3 4 8 9 7 6 9 7 12 11 25 5 11 10 10 10 16
11 13 14 16 19 23 23 22 21 20 19 16 11 5 7 8 14 16 15 7 7 10 4 2 5 2 2 4 7 4 1 5 1 7 3 8 16 19 12 7 13 13 10 10 13
11 12 14 16 20 24 22 21 20 15 11 6 6 5 8 5 6 14 15 7 9 7 5 5 5 4 1 2 4 2 5 8 14 12 5 8 10 14 5 7 12 11 11 12 12
10 12 13 16 20 23 24 18 5 3 7 8 3 2 6 6 4 5 11 11 4 6 4 3 4 3 2 4 9 8 6 6 7 4 5 6 16 14 14 8 13 14 14 16 17
11 12 14 15 19 21 23 4 5 2 1 8 6 5 3 2 6 4 8 9 4 4 6 3 4 10 23 17 6 4 6 8 10 10 3 10 15 16 19 15 13 16 20 21 21
12 13 14 14 17 15 10 5 1 2 8 9 11 8 17 2 3 4 12 6 5 7 6 1 11 21 1 3 8 11 16 14 18 17 5 17 24 20 12 20 24 23 22 23 20
14 13 13 14 16 8 5 3 4 1 2 9 6 5 6 11 8 6 11 4 4 7 10 16 8 11 8 6 7 9 8 17 16 7 6 10 20 15 14 19 24 24 22 21 21
16 14 13 12 8 7 3 5 2 2 3 7 4 3 1 4 4 1 6 5 2 11 6 9 7 10 5 6 13 20 13 14 13 3 11 2 15 7 10 16 10 19 18 15 18
11 10 11 8 7 3 1 4 1 1 7 3 3 1 1 5 3 2 3 4 5 5 4 9 4 4 7 15 10 11 5 7 4 5 5 5 5 1 5 7 14 16 17 15 15
12 11 9 9 9 8 4 2 1 3 8 5 1 1 3 3 1 2 1 3 3 3 5 11 2 6 8 6 10 1 1 2 4 3 10 13 10 3 6 8 5 7 10 11 16
9 10 12 10 2 3 5 2 2 6 1 4 2 3 1 3 3 3 3 5 5 2 4 2 5 3 5 4 2 5 3 4 4 1 11 6 7 15 7 8 8 11 12 10 9
11 9 11 17 11 7 5 2 9 6 6 2 2 1 6 8 4 2 2 4 4 1 0 3 13 7 5 9 8 8 11 6 8 8 17 5 13 14 8 10 7 4 5 8 10
12 10 9 17 17 11 3 6 5 3 4 4 5 4 4 3 5 3 5 5 7 12 8 4 9 2 4 2 7 3 6 5 1 2 1 10 18 19 6 7 2 6 4 6 8
7 5 11 17 18 9 4 18 9 7 4 3 5 7 5 3 5 5 2 3 4 9 1 2 12 4 0 2 3 7 2 2 1 3 9 15 10 18 15 19 19 6 6 7 6
3 3 5 21 22 3 10 9 9 13 8 6 7 12 14 10 9 6 2 2 3 2 4 4 3 10 5 6 10 1 4 5 1 5 14 18 15 26 18 10 6 7 8 8 9
4 3 3 24 5 3 14 10 7 17 8 8 6 17 22 18 15 13 13 9 6 2 6 9 2 11 12 5 5 4 7 7 9 9 11 17 21 28 28 20 16 23 15 6 6
2 3 3 9 7 12 7 7 14 20 15 4 10 7 7 15 10 14 17 16 15 8 7 6 5 10 12 4 1 6 12 15 17 16 22 21 18 15 23 31 26 21 7 9 8
2 3 2 4 7 7 13 19 17 7 12 10 13 12 16 18 17 12 15 5 5 5 11 2 17 19 18 21 15 10 8 11 18 13 20 21 27 23 25 28 32 36 18 18 13
1 3 2 2 8 14 15 11 16 12 7 6 4 10 12 11 15 16 12 6 4 6 3 2 7 8 11 10 13 20 22 25 28 26 24 23 27 24 26 22 19 19 19 18 18
2 1 3 4 6 6 6 16 19 22 16 16 15 9 2 3 3 2 4 1 3 4 5 2 6 13 21 24 20 21 17 17 18 18 21 24 30 18 17 19 20 16 19 18 17
3 2 1 4 2 1 5 8 1 5 3 6 8 3 4 1 4 6 8 10 13 12 10 6 5 6 21 23 21 16 23 23 23 17 13 13 8 12 17 20 22 12 18 19 20
Wind_Direction
355 356 355 354 352 351 352 354 354 353 351 349 349 346 340 323 298 264 244 234 219 207 181 166 164 165 138 67 118 124 63 249 251 187 252 181 228 200 145 241 232 212 201 265 159
339 339 340 340 338 338 338 340 340 341 340 339 339 338 337 327 304 250 258 223 209 191 176 165 164 143 84 217 172 120 150 229 218 226 246 263 195 260 308 244 252 283 233 176 166
333 329 328 326 322 322 325 327 328 329 330 332 332 333 334 330 325 250 334 204 194 190 195 181 146 127 204 156 206 179 214 218 254 233 253 255 247 217 208 264 208 215 235 173 181
341 338 333 328 319 313 310 309 310 313 318 321 324 330 331 334 295 306 307 181 189 191 184 164 121 156 203 211 199 215 245 219 259 222 258 243 277 243 200 251 197 227 201 171 192
344 347 345 339 335 321 308 301 296 295 298 302 310 322 327 18 251 283 258 182 189 193 193 161 159 165 201 209 206 231 255 249 254 271 261 304 253 243 257 256 246 243 211 211 209
339 342 344 343 341 334 322 311 296 287 283 285 293 309 191 250 254 265 221 197 201 202 207 171 202 203 227 228 186 270 268 272 279 234 248 232 274 140 264 250 245 242 238 228 219
329 334 338 339 338 337 329 315 305 291 281 275 276 270 212 237 245 245 222 211 208 200 188 221 218 163 155 296 281 297 312 306 215 226 228 171 289 225 252 202 265 253 252 242 232
321 326 333 335 336 336 329 321 308 292 281 276 261 186 243 250 245 237 214 196 199 208 186 192 183 160 192 305 353 337 305 319 294 133 236 156 263 260 251 223 262 271 265 251 251
321 327 332 335 337 336 331 322 308 299 288 261 162 165 262 274 223 230 211 175 161 137 141 135 140 176 263 114 8 298 241 225 298 191 153 186 252 269 250 197 267 267 269 266 264
317 323 330 336 337 339 333 324 354 82 95 121 85 50 266 241 184 177 184 164 128 119 77 97 59 168 46 116 235 217 221 246 235 287 174 218 245 271 283 200 246 265 267 265 268
308 315 324 333 336 341 342 350 10 349 261 199 201 231 299 175 154 154 158 131 104 93 175 202 141 207 221 204 235 193 227 234 255 264 225 236 251 254 268 277 256 261 265 264 263
297 305 314 326 333 341 354 60 102 236 302 257 253 267 258 217 211 199 159 147 158 198 125 84 216 224 237 162 219 235 254 261 270 265 207 269 265 266 256 260 262 260 259 261 261
281 288 300 316 328 345 19 34 325 278 259 289 221 206 244 173 219 218 157 136 170 171 202 224 219 221 207 217 242 224 227 255 264 306 237 280 275 249 250 249 263 264 255 267 261
274 280 285 304 310 331 290 350 12 153 326 272 267 281 213 193 237 43 186 144 218 223 211 245 238 209 168 213 212 264 220 254 263 341 277 2 297 257 238 249 230 261 269 251 266
280 287 282 267 302 295 346 351 79 116 296 250 205 335 45 175 122 350 174 104 210 208 165 244 198 165 194 228 168 253 180 221 200 200 315 179 254 229 170 246 251 253 259 263 251
274 270 270 249 246 248 271 320 151 63 252 302 142 78 95 344 347 30 52 45 117 221 233 255 345 177 219 207 181 49 43 70 56 122 263 199 207 343 166 218 273 276 264 259 271
285 261 231 226 246 201 179 283 212 220 18 241 218 165 169 225 274 183 172 181 179 250 249 323 221 235 178 248 140 129 72 307 315 11 254 178 211 248 266 225 211 248 270 316 319
276 275 251 234 239 214 102 255 238 186 223 319 103 118 194 163 237 157 115 270 247 155 248 259 291 189 171 199 196 186 166 178 230 263 282 124 260 275 229 236 255 351 276 311 319
292 267 236 242 230 197 114 246 221 180 221 253 312 272 245 247 190 139 211 231 217 181 200 207 263 227 199 172 161 178 176 199 288 11 330 263 275 288 260 294 348 303 347 311 322
306 264 228 239 214 165 202 240 241 211 156 249 229 191 197 192 183 173 245 176 249 198 320 313 296 211 331 201 193 176 180 62 359 208 257 273 273 263 283 286 284 254 277 294 313
286 270 229 212 177 211 231 237 255 233 247 247 260 264 260 261 240 235 238 281 250 184 192 95 262 259 349 204 231 163 228 200 200 197 248 261 266 268 273 266 243 269 275 299 305
273 232 215 173 205 218 233 226 232 255 258 259 263 258 264 274 258 263 252 216 223 204 209 202 271 256 255 250 177 169 230 210 233 251 236 253 253 279 280 286 267 277 291 276 276
267 280 193 201 230 229 242 244 243 251 247 238 241 221 261 270 277 248 261 259 253 233 224 190 219 279 288 278 302 198 228 234 244 262 260 263 265 269 291 293 287 291 262 274 265
315 292 228 237 247 247 249 251 250 222 245 236 251 260 270 267 256 266 275 282 4 302 319 184 256 252 258 266 297 287 258 248 240 250 256 257 270 269 273 281 294 301 336 348 6
201 247 330 256 248 253 253 269 278 272 225 233 242 244 252 264 275 273 290 317 346 0 31 356 273 272 289 300 311 312 303 288 271 266 262 271 278 284 281 310 353 7 7 18 13
225 281 343 302 309 283 240 248 262 271 272 265 264 302 302 263 243 137 25 100 232 325 16 13 281 309 288 286 283 276 272 273 281 283 277 277 276 11 15 11 9 12 11 7 0
217 276 338 253 279 287 256 259 46 1 33 58 81 355 295 67 305 281 246 243 248 265 270 259 259 272 275 281 299 280 262 271 273 279 321 302 10 3 5 358 343 18 0 349 343